User: anonymous   Login
Location: Caltech
(34.1382°N, 118.1253°W)
Time: 04:35:45
(UTC-07:00)
Language:

Cosmos 1939 Rocket - Orbit

View from above orbital plane
View from above orbital plane
View from above satellite
View from above satellite

Ground track
Ground track

The orbit data is extracted from the following two-line orbital elements,

1 19046U 88032B   16149.22351707  .00001236  00000-0  97768-4 0  9992
2 19046  97.5826 199.9517 0038074 203.6790 156.2684 15.01904647514851
Epoch (UTC): 28 May 2016 05:21:51
Eccentricity: 0.0038074
inclination: 97.5826°
perigee height: 534 km
apogee height: 587 km
right ascension of ascending node: 199.9517°
argument of perigee: 203.6790°
revolutions per day: 15.01904647
mean anomaly at epoch: 156.2684°
orbit number at epoch: 51485

The dashed part of the orbit path shows where the satellite is in the earth's shadow,  

DLR